WBANNO,USDM_WEEK,LONGITUDE,LATITUDE,SMVWC_5_CM_MEAN,SMANOM_5_CM_MEAN,SMPERC_5_CM_30COUNTS,SMPERC_5_CM_70COUNTS,SMVWC_10_CM_MEAN,SMANOM_10_CM_MEAN,SMPERC_10_CM_30COUNTS,SMPERC_10_CM_70COUNTS,SMVWC_20_CM_MEAN,SMANOM_20_CM_MEAN,SMPERC_20_CM_30COUNTS,SMPERC_20_CM_70COUNTS,SMVWC_50_CM_MEAN,SMANOM_50_CM_MEAN,SMPERC_50_CM_30COUNTS,SMPERC_50_CM_70COUNTS,SMVWC_100_CM_MEAN,SMANOM_100_CM_MEAN,SMPERC_100_CM_30COUNTS,SMPERC_100_CM_70COUNTS,SMVWC_TOP_CM_MEAN,SMANOM_TOP_CM_MEAN,SMPERC_TOP_CM_30COUNTS,SMPERC_TOP_CM_70COUNTS,SMVWC_COLUMN_CM_MEAN,SMANOM_COLUMN_CM_MEAN,SMPERC_COLUMN_CM_30COUNTS,SMPERC_COLUMN_CM_70COUNTS
23906,20110213,-96.82,28.3,,,,,,,,,,,,,,,,,,,,,,,,,,,,
23906,20110214,-96.82,28.3,,,,,,,,,,,,,,,,,,,,,,,,,,,,
23906,20110215,-96.82,28.3,,,,,,,,,,,,,,,,,,,,,,,,,,,,
23906,20110216,-96.82,28.3,,,,,,,,,,,,,,,,,,,,,,,,,,,,
23906,20110217,-96.82,28.3,,,,,,,,,,,,,,,,,,,,,,,,,,,,
23906,20110218,-96.82,28.3,0.295,4.68,0,1,0.306,3.59,0,1,0.334,4.77,0,1,0.354,8.29,0,1,0.351,2.61,0,1,0.3,4.68,0,1,0.328,6.6,0,1
23906,20110219,-96.82,28.3,0.295,4.6,0,1,0.305,3.52,0,1,0.333,4.76,0,1,0.353,8.21,0,1,0.35,2.6,0,1,0.3,4.62,0,1,0.327,6.46,0,1
23906,20110220,-96.82,28.3,0.295,4.5,0,1,0.305,3.42,0,1,0.333,4.74,0,1,0.353,8.06,0,1,0.35,2.58,0,1,0.3,4.51,0,1,0.327,6.21,0,1
23906,20110221,-96.82,28.3,0.295,4.41,0,1,0.305,3.33,0,1,0.332,4.72,0,1,0.352,7.89,0,1,0.349,2.52,0,1,0.3,4.44,0,1,0.327,5.91,0,1
23906,20110222,-96.82,28.3,0.295,4.36,0,1,0.305,3.24,0,1,0.332,4.71,0,1,0.351,7.83,0,1,0.348,2.44,0,1,0.3,4.38,0,1,0.326,5.57,0,1
23906,20110223,-96.82,28.3,0.295,4.3,0,1,0.305,3.14,0,1,0.332,4.7,0,1,0.35,7.74,0,1,0.347,2.29,0,1,0.3,4.33,0,1,0.326,5.2,0,1
23906,20110224,-96.82,28.3,0.295,4.24,0,1,0.305,3.03,0,1,0.332,4.66,0,1,0.349,7.59,0,1,0.346,2.1,0,1,0.3,4.28,0,1,0.325,4.84,0,1
23906,20110225,-96.82,28.3,0.295,4.16,0,1,0.305,2.91,0,1,0.332,4.62,0,1,0.349,7.26,0,1,0.346,1.91,0,1,0.3,4.23,0,1,0.325,4.49,0,1
23906,20110226,-96.82,28.3,0.294,4.08,0,1,0.305,2.79,0,1,0.332,4.57,0,1,0.348,6.85,0,1,0.345,1.71,0,1,0.299,4.19,0,1,0.325,4.17,0,1
23906,20110227,-96.82,28.3,0.294,3.99,0,1,0.304,2.66,0,1,0.332,4.5,0,1,0.347,6.4,0,1,0.344,1.54,0,1,0.299,4.13,0,1,0.324,3.88,0,1
23906,20110228,-96.82,28.3,0.293,3.87,0,1,0.304,2.51,0,1,0.332,4.42,0,1,0.347,5.95,0,1,0.344,1.4,0,1,0.299,4.06,0,1,0.324,3.65,0,1
23906,20110301,-96.82,28.3,0.292,3.76,0,1,0.304,2.37,0,1,0.332,4.31,0,1,0.346,5.52,0,1,0.343,1.28,0,1,0.298,4,0,1,0.323,3.51,0,1
23906,20110302,-96.82,28.3,0.291,3.67,0,1,0.303,2.26,0,1,0.332,4.22,0,1,0.345,5.17,0,1,0.343,1.22,0,1,0.297,3.95,0,1,0.323,3.45,0,1
23906,20110303,-96.82,28.3,0.289,3.61,0,1,0.303,2.17,0,1,0.332,4.15,0,1,0.345,4.91,0,1,0.342,1.21,0,1,0.296,3.92,0,1,0.322,3.43,0,1
23906,20110304,-96.82,28.3,0.288,3.57,0,1,0.302,2.11,0,1,0.332,4.03,0,1,0.345,4.83,0,1,0.342,1.2,0,1,0.295,3.88,0,1,0.321,3.42,0,1
23906,20110305,-96.82,28.3,0.286,3.56,0,1,0.301,2.07,0,1,0.331,3.94,0,1,0.344,4.81,0,1,0.342,1.21,0,1,0.294,3.86,0,1,0.321,3.42,0,1
23906,20110306,-96.82,28.3,0.284,3.57,0,1,0.3,2.02,0,1,0.331,3.86,0,1,0.343,4.81,0,1,0.341,1.21,0,1,0.292,3.85,0,1,0.32,3.42,0,1
23906,20110307,-96.82,28.3,0.282,3.57,0,1,0.299,1.98,0,1,0.331,3.74,0,1,0.343,4.81,0,1,0.341,1.21,0,1,0.29,3.82,0,1,0.319,3.42,0,1
23906,20110308,-96.82,28.3,0.28,3.58,0,1,0.297,1.96,0,1,0.331,3.64,0,1,0.342,4.8,0,1,0.341,1.21,0,1,0.288,3.8,0,1,0.318,3.43,0,1
23906,20110309,-96.82,28.3,0.278,3.64,0,1,0.296,1.93,0,1,0.331,3.54,0,1,0.342,4.8,0,1,0.341,1.22,0,1,0.287,3.79,0,1,0.317,3.44,0,1
23906,20110310,-96.82,28.3,0.276,3.72,0,1,0.294,1.92,0,1,0.33,3.44,0,1,0.341,4.8,0,1,0.341,1.22,0,1,0.285,3.83,0,1,0.316,3.46,0,1
23906,20110311,-96.82,28.3,0.272,3.8,0,1,0.291,1.91,0,1,0.328,3.41,0,1,0.341,4.81,0,1,0.341,1.22,0,1,0.282,3.87,0,1,0.315,3.47,0,1
23906,20110312,-96.82,28.3,0.269,3.87,0,1,0.288,1.89,0,1,0.326,3.38,0,1,0.34,4.83,0,1,0.341,1.22,0,1,0.279,3.9,0,1,0.313,3.48,0,1
23906,20110313,-96.82,28.3,0.264,3.9,0,1,0.285,1.88,0,1,0.323,3.34,0,1,0.34,4.85,0,1,0.341,1.23,0,1,0.275,3.92,0,1,0.311,3.48,0,1
23906,20110314,-96.82,28.3,0.259,3.91,0,1,0.282,1.86,0,1,0.32,3.35,0,1,0.339,4.88,0,1,0.34,1.23,0,1,0.271,3.92,0,1,0.308,3.47,0,1
23906,20110315,-96.82,28.3,0.255,3.9,0,1,0.28,1.85,0,1,0.317,3.36,0,1,0.338,4.91,0,1,0.34,1.23,0,1,0.267,3.91,0,1,0.306,3.46,0,1
23906,20110316,-96.82,28.3,0.25,3.83,0,1,0.277,1.85,0,1,0.313,3.42,0,1,0.338,4.95,0,1,0.34,1.23,0,1,0.264,3.89,0,1,0.304,3.45,0,1
23906,20110317,-96.82,28.3,0.245,3.71,0,1,0.275,1.85,0,1,0.31,3.51,0,1,0.338,4.98,0,1,0.34,1.24,0,1,0.26,3.79,0,1,0.302,3.42,0,1
23906,20110318,-96.82,28.3,0.241,3.56,0,1,0.272,1.86,0,1,0.308,3.6,0,1,0.337,5.01,0,1,0.34,1.24,0,1,0.257,3.66,0,1,0.3,3.4,0,1
23906,20110319,-96.82,28.3,0.237,3.4,0,1,0.27,1.87,0,1,0.305,3.67,0,1,0.337,5.03,0,1,0.34,1.24,0,1,0.253,3.51,0,1,0.298,3.37,0,1
23906,20110320,-96.82,28.3,0.233,3.23,0,1,0.266,1.87,0,1,0.303,3.72,0,1,0.336,5.03,0,1,0.34,1.25,0,1,0.25,3.33,0,1,0.296,3.33,0,1
23906,20110321,-96.82,28.3,0.229,3.05,0,1,0.262,1.87,0,1,0.3,3.8,0,1,0.335,5.04,0,1,0.339,1.25,0,1,0.246,3.16,0,1,0.293,3.28,0,1
23906,20110322,-96.82,28.3,0.224,2.85,0,1,0.257,1.86,0,1,0.295,3.89,0,1,0.335,5.03,0,1,0.339,1.26,0,1,0.241,2.95,0,1,0.29,3.21,0,1
23906,20110323,-96.82,28.3,0.219,2.63,0,1,0.251,1.83,0,1,0.29,3.91,0,1,0.334,5.02,0,1,0.338,1.27,0,1,0.235,2.73,0,1,0.286,3.12,0,1
23906,20110324,-96.82,28.3,0.214,2.42,0,1,0.244,1.77,0,1,0.284,3.86,0,1,0.333,5,0,1,0.338,1.27,0,1,0.229,2.52,0,1,0.282,3.02,0,1
23906,20110325,-96.82,28.3,0.208,2.22,0,1,0.237,1.71,0,1,0.276,3.75,0,1,0.332,4.97,0,1,0.337,1.28,0,1,0.223,2.32,0,1,0.278,2.91,0,1
23906,20110326,-96.82,28.3,0.203,2.05,0,1,0.23,1.67,0,1,0.269,3.7,0,1,0.331,4.95,0,1,0.337,1.28,0,1,0.217,2.16,0,1,0.274,2.81,0,1
23906,20110327,-96.82,28.3,0.199,1.91,0,1,0.224,1.64,0,1,0.261,3.67,0,1,0.33,4.92,0,1,0.336,1.29,0,1,0.211,2.04,0,1,0.27,2.71,0,1
23906,20110328,-96.82,28.3,0.195,1.8,0,1,0.219,1.61,0,1,0.253,3.58,0,1,0.329,4.89,0,1,0.336,1.29,0,1,0.207,1.95,0,1,0.266,2.63,0,1
23906,20110329,-96.82,28.3,0.192,1.71,0,1,0.214,1.58,0,1,0.246,3.46,0,1,0.329,4.85,0,1,0.335,1.3,0,1,0.203,1.87,0,1,0.263,2.55,0,1
23906,20110330,-96.82,28.3,0.19,1.65,0,1,0.21,1.56,0,1,0.24,3.35,0,1,0.328,4.82,0,1,0.335,1.3,0,1,0.2,1.81,0,1,0.261,2.49,0,1
23906,20110331,-96.82,28.3,0.188,1.63,0,1,0.208,1.56,0,1,0.236,3.31,0,1,0.328,4.8,0,1,0.335,1.3,0,1,0.198,1.8,0,1,0.259,2.46,0,1
23906,20110401,-96.82,28.3,,,,,,,,,,,,,,,,,,,,,,,,,,,,
23906,20110402,-96.82,28.3,,,,,,,,,,,,,,,,,,,,,,,,,,,,
23906,20110403,-96.82,28.3,,,,,,,,,,,,,,,,,,,,,,,,,,,,
23906,20110404,-96.82,28.3,,,,,,,,,,,,,,,,,,,,,,,,,,,,
23906,20110405,-96.82,28.3,,,,,,,,,,,,,,,,,,,,,,,,,,,,
23906,20110406,-96.82,28.3,,,,,,,,,,,,,,,,,,,,,,,,,,,,
23906,20110407,-96.82,28.3,,,,,,,,,,,,,,,,,,,,,,,,,,,,
23906,20110408,-96.82,28.3,,,,,,,,,,,,,,,,,,,,,,,,,,,,
23906,20110409,-96.82,28.3,,,,,,,,,,,,,,,,,,,,,,,,,,,,
23906,20110410,-96.82,28.3,,,,,,,,,,,,,,,,,,,,,,,,,,,,
23906,20110411,-96.82,28.3,,,,,,,,,,,,,,,,,,,,,,,,,,,,
23906,20110412,-96.82,28.3,,,,,,,,,,,,,,,,,,,,,,,,,,,,
23906,20110413,-96.82,28.3,,,,,,,,,,,,,,,,,,,,,,,,,,,,
23906,20110414,-96.82,28.3,,,,,,,,,,,,,,,,,,,,,,,,,,,,
23906,20110415,-96.82,28.3,,,,,,,,,,,,,,,,,,,,,,,,,,,,
23906,20110416,-96.82,28.3,,,,,,,,,,,,,,,,,,,,,,,,,,,,
23906,20110417,-96.82,28.3,,,,,,,,,,,,,,,,,,,,,,,,,,,,
23906,20110418,-96.82,28.3,,,,,,,,,,,,,,,,,0.326,1.01,0,0.986,,,,,,,,
23906,20110419,-96.82,28.3,,,,,,,,,0.155,1.52,0,0.978,0.292,3.8,0,1,0.327,1.04,0,0.993,,,,,,,,
23906,20110420,-96.82,28.3,0.136,0.91,0,0.978,0.146,1.06,0,0.971,0.151,1.47,0,0.979,0.284,3.67,0,1,0.328,1.06,0,1,0.141,0.89,0,0.978,0.209,1.31,0,1
23906,20110421,-96.82,28.3,0.133,0.89,0,0.978,0.143,1.04,0,0.978,0.146,1.41,0,0.979,0.275,3.51,0,1,0.328,1.08,0,1,0.138,0.87,0,0.978,0.206,1.29,0,1
23906,20110422,-96.82,28.3,,,,,0.14,1.02,0,0.985,0.142,1.36,0,0.979,0.264,3.33,0,1,0.329,1.1,0,1,,,,,,,,
23906,20110423,-96.82,28.3,0.125,0.84,0,0.97,0.138,1.02,0,1,0.14,1.34,0,0.993,0.255,3.18,0,1,0.329,1.11,0,1,,,,,,,,
23906,20110424,-96.82,28.3,0.121,0.84,0.007,0.964,0.134,1,0.007,0.993,0.136,1.32,0,0.993,0.247,3.05,0,1,0.328,1.13,0,1,0.128,0.84,0.007,0.986,0.194,1.27,0,1
23906,20110425,-96.82,28.3,0.12,0.86,0.007,0.972,0.131,1.01,0.007,0.993,0.134,1.32,0,1,0.242,2.98,0,1,0.328,1.15,0,1,0.126,0.85,0.007,0.993,0.192,1.3,0,1
23906,20110426,-96.82,28.3,,,,,,,,,0.13,1.3,0,1,0.232,2.83,0,1,0.327,1.16,0,1,,,,,,,,
23906,20110427,-96.82,28.3,,,,,,,,,,,,,0.229,2.77,0,1,0.326,1.16,0,1,,,,,,,,
23906,20110428,-96.82,28.3,,,,,,,,,,,,,0.225,2.72,0,1,0.325,1.16,0,1,,,,,,,,
23906,20110429,-96.82,28.3,,,,,,,,,,,,,,,,,,,,,,,,,,,,
23906,20110430,-96.82,28.3,,,,,,,,,,,,,,,,,,,,,,,,,,,,
23906,20110501,-96.82,28.3,,,,,,,,,,,,,,,,,,,,,,,,,,,,
23906,20110502,-96.82,28.3,,,,,,,,,,,,,,,,,,,,,,,,,,,,
23906,20110503,-96.82,28.3,,,,,,,,,,,,,,,,,,,,,,,,,,,,
23906,20110504,-96.82,28.3,,,,,,,,,,,,,,,,,,,,,,,,,,,,
23906,20110505,-96.82,28.3,,,,,,,,,,,,,,,,,,,,,,,,,,,,
23906,20110506,-96.82,28.3,,,,,,,,,,,,,,,,,,,,,,,,,,,,
23906,20110507,-96.82,28.3,,,,,,,,,,,,,,,,,,,,,,,,,,,,
23906,20110508,-96.82,28.3,,,,,,,,,,,,,,,,,,,,,,,,,,,,
23906,20110509,-96.82,28.3,,,,,,,,,,,,,,,,,,,,,,,,,,,,
23906,20110510,-96.82,28.3,,,,,,,,,,,,,,,,,,,,,,,,,,,,
23906,20110511,-96.82,28.3,,,,,,,,,,,,,,,,,,,,,,,,,,,,
23906,20110512,-96.82,28.3,,,,,,,,,,,,,,,,,,,,,,,,,,,,
23906,20110513,-96.82,28.3,,,,,,,,,,,,,,,,,,,,,,,,,,,,
23906,20110514,-96.82,28.3,,,,,,,,,,,,,,,,,,,,,,,,,,,,
23906,20110515,-96.82,28.3,,,,,,,,,,,,,,,,,,,,,,,,,,,,
23906,20110516,-96.82,28.3,,,,,,,,,,,,,,,,,,,,,,,,,,,,
23906,20110517,-96.82,28.3,,,,,,,,,,,,,,,,,,,,,,,,,,,,
23906,20110518,-96.82,28.3,,,,,,,,,,,,,,,,,,,,,,,,,,,,
23906,20110519,-96.82,28.3,,,,,,,,,,,,,,,,,,,,,,,,,,,,
23906,20110520,-96.82,28.3,,,,,,,,,,,,,,,,,,,,,,,,,,,,
23906,20110521,-96.82,28.3,,,,,,,,,,,,,,,,,,,,,,,,,,,,
23906,20110522,-96.82,28.3,,,,,,,,,,,,,,,,,,,,,,,,,,,,
23906,20110523,-96.82,28.3,0.071,0.31,0,0,0.08,0.45,0,0.156,0.095,0.61,0,0.638,0.142,0.95,0,1,0.323,0.59,0,0.993,0.075,0.33,0,0.014,0.142,0.63,0,0.887
23906,20110524,-96.82,28.3,0.069,0.29,0,0,0.077,0.41,0,0.123,0.093,0.58,0,0.54,0.141,0.91,0,1,0.323,0.59,0,0.994,0.073,0.3,0,0,0.141,0.58,0,0.755
23906,20110525,-96.82,28.3,0.067,0.25,0,0,0.074,0.36,0,0.012,0.091,0.54,0,0.411,0.138,0.87,0,1,0.323,0.58,0,1,0.07,0.26,0,0,0.138,0.51,0,0.619
23906,20110526,-96.82,28.3,0.063,0.21,0,0,0.069,0.31,0,0,0.088,0.49,0,0.268,0.135,0.81,0,1,0.323,0.55,0,1,0.066,0.22,0,0,0.136,0.43,0,0.476
23906,20110527,-96.82,28.3,0.06,0.17,0,0,0.065,0.25,0,0,0.085,0.44,0,0.125,0.132,0.76,0,1,0.322,0.53,0,1,0.062,0.17,0,0,0.133,0.36,0,0.333
23906,20110528,-96.82,28.3,0.056,0.13,0,0,0.06,0.19,0,0,0.082,0.39,0,0,0.128,0.7,0,0.887,0.322,0.51,0,1,0.058,0.12,0,0,0.13,0.28,0,0.19
23906,20110529,-96.82,28.3,0.053,0.09,0,0,0.056,0.14,0,0,0.079,0.34,0,0,0.125,0.63,0,0.756,0.322,0.48,0,0.994,0.054,0.08,0,0,0.127,0.22,0,0.06
23906,20110530,-96.82,28.3,0.05,0.07,0,0,0.052,0.09,0,0,0.076,0.3,0,0,0.121,0.57,0,0.613,0.322,0.46,0,0.893,0.051,0.05,0,0,0.124,0.18,0,0
23906,20110531,-96.82,28.3,0.048,0.05,0,0,0.049,0.06,0,0,0.073,0.27,0,0,0.118,0.52,0,0.47,0.321,0.43,0,0.75,0.048,0.03,0,0,0.122,0.15,0,0
23906,20110601,-96.82,28.3,0.045,0.04,0,0,0.046,0.04,0,0,0.069,0.24,0,0,0.115,0.48,0,0.327,0.321,0.41,0,0.613,0.046,0.01,0,0,0.119,0.13,0,0
23906,20110602,-96.82,28.3,0.043,0.04,0,0,0.044,0.03,0,0,0.066,0.21,0,0,0.112,0.44,0,0.185,0.321,0.4,0,0.47,0.043,0.01,0,0,0.117,0.12,0,0
23906,20110603,-96.82,28.3,0.041,0.05,0,0,0.043,0.04,0,0,0.062,0.19,0,0,0.109,0.42,0,0.042,0.321,0.38,0,0.327,0.042,0.02,0,0,0.115,0.11,0,0
23906,20110604,-96.82,28.3,0.038,0.05,0,0,0.043,0.06,0,0,0.058,0.18,0,0,0.106,0.4,0,0.024,0.321,0.37,0,0.185,0.041,0.03,0,0,0.113,0.11,0,0
23906,20110605,-96.82,28.3,0.036,0.05,0,0,0.043,0.08,0,0,0.053,0.16,0,0,0.103,0.39,0,0.012,0.321,0.36,0,0.048,0.04,0.04,0,0,0.111,0.1,0,0
23906,20110606,-96.82,28.3,0.033,0.05,0,0,0.043,0.09,0,0,0.048,0.13,0,0,0.1,0.38,0,0.012,0.321,0.35,0,0.006,0.038,0.05,0,0,0.109,0.1,0,0
23906,20110607,-96.82,28.3,0.031,0.05,0,0,0.043,0.11,0,0,0.043,0.1,0,0,0.097,0.36,0,0.012,0.321,0.34,0,0.006,0.037,0.05,0,0,0.107,0.09,0,0
23906,20110608,-96.82,28.3,0.028,0.03,0,0,0.043,0.12,0,0,0.039,0.07,0,0,0.094,0.34,0,0.012,0.32,0.34,0,0,0.036,0.05,0,0,0.105,0.09,0,0
23906,20110609,-96.82,28.3,0.026,0.02,0,0,0.043,0.11,0,0,0.035,0.04,0,0,0.092,0.31,0,0.012,0.32,0.34,0,0,0.034,0.05,0,0,0.103,0.09,0,0
23906,20110610,-96.82,28.3,0.024,0.01,0,0,0.041,0.1,0,0,0.031,0.01,0,0,0.089,0.27,0,0.012,0.321,0.33,0,0,0.033,0.04,0,0,0.101,0.08,0,0
23906,20110611,-96.82,28.3,0.022,-0.01,0,0,0.04,0.08,0,0,0.028,-0.02,0,0,0.087,0.23,0,0,0.321,0.33,0,0,0.031,0.02,0,0,0.099,0.08,0,0
23906,20110612,-96.82,28.3,0.021,-0.02,0,0,0.038,0.06,0,0,0.026,-0.05,0,0,0.084,0.19,0,0,0.321,0.33,0,0,0.029,0,0,0,0.098,0.08,0,0
23906,20110613,-96.82,28.3,0.019,-0.04,0,0,0.037,0.05,0,0,0.024,-0.07,0,0,0.082,0.14,0,0,0.321,0.33,0,0,0.028,-0.01,0,0,0.097,0.07,0,0
23906,20110614,-96.82,28.3,0.019,-0.05,0,0,0.036,0.03,0,0,0.023,-0.09,0,0,0.08,0.1,0,0,0.32,0.33,0,0,0.027,-0.03,0,0,0.095,0.07,0,0
23906,20110615,-96.82,28.3,0.018,-0.07,0.012,0,0.035,0.01,0,0,0.022,-0.1,0,0,0.078,0.06,0,0,0.319,0.32,0,0,0.026,-0.04,0,0,0.094,0.06,0,0
23906,20110616,-96.82,28.3,0.018,-0.08,0.071,0,0.034,-0.01,0,0,0.022,-0.12,0,0,0.075,0.03,0,0,0.317,0.31,0,0,0.026,-0.06,0,0,0.093,0.06,0,0
23906,20110617,-96.82,28.3,0.017,-0.1,0.161,0,0.032,-0.04,0,0,0.022,-0.14,0.042,0,0.073,0,0,0,0.314,0.31,0,0,0.025,-0.08,0.006,0,0.092,0.05,0,0
23906,20110618,-96.82,28.3,0.017,-0.11,0.238,0,0.031,-0.06,0,0,0.021,-0.16,0.125,0,0.071,-0.03,0,0,0.309,0.3,0,0,0.024,-0.1,0.018,0,0.09,0.04,0,0
23906,20110619,-96.82,28.3,0.018,-0.12,0.321,0,0.029,-0.09,0,0,0.021,-0.18,0.196,0,0.068,-0.05,0,0,0.304,0.29,0,0,0.023,-0.12,0.065,0,0.088,0.03,0,0
23906,20110620,-96.82,28.3,0.018,-0.13,0.411,0,0.028,-0.12,0.012,0,0.021,-0.2,0.274,0,0.066,-0.07,0,0,0.297,0.28,0,0,0.023,-0.13,0.131,0,0.086,0.02,0,0
23906,20110621,-96.82,28.3,0.018,-0.14,0.494,0,0.027,-0.15,0.095,0,0.021,-0.22,0.375,0,0.064,-0.09,0,0,0.29,0.27,0,0,0.022,-0.15,0.19,0,0.084,0.01,0,0
23906,20110622,-96.82,28.3,0.018,-0.14,0.548,0,0.025,-0.17,0.19,0,0.02,-0.24,0.476,0,0.061,-0.11,0,0,0.283,0.26,0,0,0.022,-0.16,0.244,0,0.081,0,0,0
23906,20110623,-96.82,28.3,0.032,0.1,0.5,0.125,0.039,0.03,0.19,0.125,0.031,-0.11,0.494,0.125,0.063,-0.08,0,0,0.277,0.26,0,0,0.036,0.07,0.25,0.125,0.089,0.07,0,0.125
23906,20110624,-96.82,28.3,0.043,0.28,0.411,0.268,0.05,0.18,0.19,0.268,0.04,0,0.452,0.268,0.067,-0.04,0,0,0.275,0.27,0,0,0.046,0.25,0.244,0.268,0.095,0.14,0,0.268
23906,20110625,-96.82,28.3,0.053,0.47,0.333,0.411,0.061,0.33,0.19,0.411,0.048,0.1,0.369,0.411,0.07,0,0,0,0.275,0.29,0,0.006,0.057,0.43,0.232,0.411,0.102,0.21,0,0.411
23906,20110626,-96.82,28.3,0.063,0.63,0.25,0.554,0.07,0.45,0.19,0.554,0.056,0.2,0.298,0.518,0.074,0.05,0,0,0.277,0.31,0,0.071,0.066,0.59,0.185,0.554,0.108,0.28,0,0.554
23906,20110627,-96.82,28.3,0.071,0.77,0.161,0.696,0.078,0.55,0.179,0.685,0.063,0.28,0.22,0.518,0.078,0.09,0,0,0.279,0.33,0,0.155,0.074,0.72,0.119,0.696,0.114,0.34,0,0.696
23906,20110628,-96.82,28.3,0.078,0.88,0.077,0.839,0.085,0.64,0.095,0.702,0.07,0.36,0.119,0.518,0.082,0.13,0,0,0.282,0.35,0,0.25,0.081,0.84,0.06,0.827,0.119,0.4,0,0.744
23906,20110629,-96.82,28.3,0.083,0.98,0.012,0.899,0.091,0.72,0,0.702,0.075,0.43,0.018,0.518,0.085,0.17,0,0,0.287,0.37,0,0.363,0.087,0.93,0.006,0.845,0.124,0.46,0,0.744
23906,20110630,-96.82,28.3,0.073,0.81,0,0.774,0.08,0.56,0,0.577,0.07,0.34,0,0.393,0.084,0.16,0,0,0.289,0.39,0,0.488,0.077,0.76,0,0.72,0.119,0.43,0,0.619
23906,20110701,-96.82,28.3,0.066,0.69,0,0.631,0.072,0.44,0,0.435,0.065,0.27,0,0.25,0.081,0.14,0,0,0.289,0.4,0,0.631,0.069,0.64,0,0.577,0.115,0.4,0,0.476
23906,20110702,-96.82,28.3,0.058,0.54,0,0.488,0.064,0.33,0,0.292,0.06,0.2,0,0.107,0.078,0.11,0,0,0.287,0.41,0,0.768,0.061,0.51,0,0.435,0.109,0.37,0,0.333
23906,20110703,-96.82,28.3,0.051,0.42,0,0.345,0.056,0.23,0,0.149,0.055,0.12,0,0,0.075,0.08,0,0,0.286,0.42,0,0.845,0.053,0.39,0,0.292,0.104,0.33,0,0.19
23906,20110704,-96.82,28.3,0.044,0.32,0,0.202,0.049,0.14,0,0.018,0.049,0.05,0,0,0.072,0.05,0,0,0.283,0.43,0,0.905,0.046,0.29,0,0.149,0.099,0.3,0,0.048
23906,20110705,-96.82,28.3,0.037,0.21,0,0.06,0.042,0.06,0.012,0,0.044,-0.02,0,0,0.068,0.03,0,0,0.281,0.43,0,0.952,0.04,0.19,0,0.018,0.094,0.27,0,0
23906,20110706,-96.82,28.3,0.032,0.13,0,0,0.038,0,0.018,0,0.038,-0.09,0.095,0,0.065,0,0,0,0.277,0.43,0,0.958,0.035,0.12,0,0,0.09,0.25,0,0
23906,20110707,-96.82,28.3,0.029,0.07,0,0,0.034,-0.05,0.024,0,0.033,-0.16,0.238,0,0.062,-0.03,0,0,0.272,0.43,0,0.839,0.031,0.06,0,0,0.086,0.23,0,0
23906,20110708,-96.82,28.3,0.026,0.03,0,0,0.031,-0.09,0.048,0,0.029,-0.23,0.381,0,0.059,-0.05,0,0,0.265,0.42,0,0.696,0.029,0.02,0,0,0.082,0.21,0,0
23906,20110709,-96.82,28.3,0.024,0,0,0,0.029,-0.13,0.143,0,0.024,-0.29,0.524,0,0.056,-0.08,0,0,0.257,0.41,0,0.554,0.026,-0.02,0,0,0.078,0.19,0,0
23906,20110710,-96.82,28.3,0.022,-0.03,0,0,0.026,-0.16,0.28,0,0.021,-0.33,0.667,0,0.053,-0.1,0,0,0.248,0.39,0,0.411,0.024,-0.05,0,0,0.074,0.17,0,0
23906,20110711,-96.82,28.3,0.021,-0.04,0,0,0.025,-0.18,0.423,0,0.019,-0.36,0.81,0,0.05,-0.13,0,0,0.238,0.37,0,0.268,0.023,-0.06,0.024,0,0.071,0.16,0,0
23906,20110712,-96.82,28.3,0.021,-0.04,0,0,0.023,-0.2,0.554,0,0.017,-0.38,0.952,0,0.047,-0.15,0,0,0.227,0.34,0,0.125,0.022,-0.07,0.071,0,0.067,0.14,0,0
23906,20110713,-96.82,28.3,0.021,-0.03,0,0,0.021,-0.22,0.69,0,0.016,-0.39,1,0,0.044,-0.17,0.024,0,0.215,0.31,0,0.006,0.021,-0.09,0.113,0,0.063,0.12,0,0
23906,20110714,-96.82,28.3,0.02,-0.03,0,0,0.019,-0.23,0.827,0,0.016,-0.39,1,0,0.041,-0.19,0.107,0,0.204,0.29,0,0,0.02,-0.09,0.125,0,0.06,0.1,0,0
23906,20110715,-96.82,28.3,0.02,-0.02,0,0,0.018,-0.24,0.946,0,0.015,-0.39,1,0,0.038,-0.21,0.244,0,0.194,0.26,0,0,0.019,-0.09,0.125,0,0.057,0.08,0,0
23906,20110716,-96.82,28.3,0.02,-0.01,0,0,0.017,-0.25,0.994,0,0.015,-0.38,1,0,0.036,-0.24,0.387,0,0.184,0.24,0,0,0.018,-0.09,0.125,0,0.054,0.06,0,0
23906,20110717,-96.82,28.3,0.02,0,0,0,0.015,-0.25,1,0,0.015,-0.36,1,0,0.033,-0.25,0.53,0,0.175,0.22,0,0,0.018,-0.08,0.125,0,0.052,0.04,0,0
23906,20110718,-96.82,28.3,0.02,0.01,0,0,0.015,-0.25,1,0,0.015,-0.35,1,0,0.032,-0.26,0.661,0,0.166,0.19,0,0,0.017,-0.07,0.101,0,0.05,0.02,0,0
23906,20110719,-96.82,28.3,0.02,0.02,0,0,0.014,-0.24,0.994,0,0.015,-0.33,0.94,0,0.03,-0.28,0.78,0,0.159,0.17,0,0,0.017,-0.06,0.054,0,0.048,0.01,0,0
23906,20110720,-96.82,28.3,0.02,0.03,0,0,0.014,-0.23,0.958,0,0.015,-0.31,0.821,0,0.029,-0.27,0.786,0,0.153,0.15,0,0,0.017,-0.05,0.012,0,0.046,0,0,0
23906,20110721,-96.82,28.3,0.02,0.04,0,0,0.014,-0.21,0.881,0,0.015,-0.29,0.69,0,0.029,-0.27,0.762,0,0.147,0.14,0,0,0.017,-0.04,0,0,0.045,-0.01,0,0
23906,20110722,-96.82,28.3,0.02,0.05,0,0,0.014,-0.2,0.798,0,0.015,-0.28,0.571,0,0.029,-0.26,0.643,0,0.142,0.12,0,0,0.017,-0.03,0,0,0.044,-0.01,0,0
23906,20110723,-96.82,28.3,0.02,0.06,0,0,0.014,-0.18,0.685,0,0.015,-0.26,0.464,0,0.028,-0.25,0.512,0,0.137,0.11,0,0,0.017,-0.03,0,0,0.043,-0.02,0,0
23906,20110724,-96.82,28.3,0.02,0.06,0,0,0.014,-0.16,0.577,0,0.014,-0.25,0.375,0,0.028,-0.24,0.387,0,0.132,0.1,0,0,0.017,-0.02,0,0,0.042,-0.02,0,0
23906,20110725,-96.82,28.3,0.02,0.07,0,0,0.014,-0.15,0.458,0,0.014,-0.25,0.327,0,0.028,-0.23,0.28,0,0.128,0.09,0,0,0.017,-0.01,0,0,0.041,-0.03,0,0
23906,20110726,-96.82,28.3,0.02,0.07,0,0,0.014,-0.13,0.339,0,0.013,-0.25,0.339,0,0.027,-0.23,0.208,0,0.124,0.08,0,0,0.017,0,0,0,0.04,-0.03,0,0
23906,20110727,-96.82,28.3,0.019,0.07,0,0,0.015,-0.11,0.238,0,0.013,-0.24,0.363,0,0.026,-0.24,0.202,0,0.121,0.07,0,0,0.017,0.01,0,0,0.039,-0.04,0,0
23906,20110728,-96.82,28.3,0.019,0.07,0,0,0.015,-0.1,0.185,0,0.012,-0.25,0.482,0,0.025,-0.24,0.185,0,0.117,0.06,0,0,0.017,0.01,0,0,0.038,-0.05,0,0
23906,20110729,-96.82,28.3,0.019,0.06,0,0,0.015,-0.09,0.125,0,0.011,-0.25,0.595,0,0.025,-0.24,0.238,0,0.114,0.05,0,0,0.017,0.01,0,0,0.037,-0.05,0,0
23906,20110730,-96.82,28.3,0.019,0.06,0,0,0.015,-0.09,0.095,0,0.011,-0.25,0.69,0,0.024,-0.24,0.268,0,0.111,0.04,0,0,0.017,0.01,0,0,0.036,-0.05,0,0
23906,20110731,-96.82,28.3,0.018,0.04,0,0,0.015,-0.09,0.077,0,0.011,-0.25,0.762,0,0.023,-0.24,0.286,0,0.108,0.03,0,0,0.016,0.01,0,0,0.035,-0.05,0,0
23906,20110801,-96.82,28.3,0.018,0.03,0,0,0.015,-0.09,0.077,0,0.011,-0.25,0.792,0,0.023,-0.24,0.357,0,0.106,0.02,0,0,0.016,0,0,0,0.034,-0.06,0,0
23906,20110802,-96.82,28.3,0.017,0.02,0,0,0.014,-0.1,0.143,0,0.011,-0.25,0.839,0,0.022,-0.24,0.44,0,0.103,0.01,0,0,0.016,-0.01,0,0,0.034,-0.06,0,0
23906,20110803,-96.82,28.3,0.017,0.02,0,0,0.014,-0.11,0.232,0,0.01,-0.26,0.923,0,0.022,-0.25,0.524,0,0.101,0,0,0,0.016,-0.01,0,0,0.033,-0.06,0,0
23906,20110804,-96.82,28.3,0.017,0.03,0,0.006,0.014,-0.12,0.292,0,0.009,-0.26,0.935,0,0.022,-0.24,0.506,0,0.098,0,0,0,0.016,-0.01,0,0,0.032,-0.06,0,0
23906,20110805,-96.82,28.3,0.017,0.03,0,0.006,0.014,-0.13,0.357,0,0.009,-0.27,0.94,0,0.021,-0.24,0.518,0,0.096,-0.01,0,0,0.015,-0.02,0,0,0.031,-0.07,0,0
23906,20110806,-96.82,28.3,0.017,0.04,0,0.024,0.013,-0.14,0.387,0,0.008,-0.27,0.952,0,0.021,-0.24,0.56,0,0.094,-0.01,0,0,0.015,-0.01,0,0,0.031,-0.07,0,0
23906,20110807,-96.82,28.3,0.018,0.05,0,0.042,0.013,-0.14,0.393,0,0.007,-0.28,0.97,0,0.02,-0.24,0.613,0,0.092,-0.02,0,0,0.015,-0.01,0,0,0.03,-0.07,0,0
23906,20110808,-96.82,28.3,0.018,0.07,0,0.054,0.013,-0.14,0.393,0,0.006,-0.29,0.988,0,0.02,-0.25,0.649,0,0.09,-0.02,0,0,0.015,0,0,0,0.029,-0.08,0,0
23906,20110809,-96.82,28.3,0.018,0.08,0,0.054,0.013,-0.13,0.315,0,0.005,-0.29,0.988,0,0.019,-0.25,0.637,0,0.088,-0.02,0,0,0.015,0.01,0,0,0.029,-0.08,0,0
23906,20110810,-96.82,28.3,0.018,0.09,0,0.054,0.013,-0.13,0.232,0,0.005,-0.29,0.988,0,0.019,-0.25,0.577,0,0.086,-0.02,0,0,0.016,0.02,0,0,0.028,-0.07,0,0
23906,20110811,-96.82,28.3,0.018,0.09,0,0.048,0.013,-0.13,0.185,0,0.005,-0.29,0.97,0,0.019,-0.24,0.56,0,0.084,-0.01,0,0,0.015,0.02,0,0,0.028,-0.07,0,0
23906,20110812,-96.82,28.3,0.018,0.11,0,0.048,0.013,-0.13,0.143,0,0.005,-0.29,0.917,0,0.018,-0.24,0.476,0,0.082,-0.01,0,0,0.016,0.03,0,0,0.027,-0.07,0,0
23906,20110813,-96.82,28.3,0.018,0.1,0,0.03,0.013,-0.14,0.179,0,0.005,-0.28,0.827,0,0.018,-0.24,0.423,0,0.081,-0.01,0,0,0.015,0.02,0,0,0.027,-0.06,0,0
23906,20110814,-96.82,28.3,0.018,0.11,0,0.012,0.013,-0.15,0.25,0,0.006,-0.27,0.744,0,0.018,-0.23,0.357,0,0.079,-0.01,0,0,0.015,0.02,0,0,0.027,-0.06,0,0
23906,20110815,-96.82,28.3,0.018,0.11,0,0,0.012,-0.17,0.363,0,0.006,-0.26,0.655,0,0.018,-0.22,0.226,0,0.078,-0.01,0,0,0.015,0.01,0,0,0.026,-0.06,0,0
23906,20110816,-96.82,28.3,0.018,0.11,0,0,0.012,-0.2,0.5,0,0.007,-0.25,0.56,0,0.018,-0.22,0.107,0,0.077,-0.01,0,0,0.015,-0.01,0.006,0,0.026,-0.06,0,0
23906,20110817,-96.82,28.3,0.018,0.1,0.006,0,0.012,-0.24,0.631,0,0.007,-0.25,0.5,0,0.017,-0.21,0.06,0,0.075,-0.01,0,0,0.015,-0.03,0.012,0,0.026,-0.06,0,0
23906,20110818,-96.82,28.3,0.018,0.08,0.018,0,0.011,-0.27,0.75,0,0.007,-0.25,0.512,0,0.017,-0.21,0.054,0,0.074,0,0,0,0.014,-0.06,0.054,0,0.025,-0.07,0,0
23906,20110819,-96.82,28.3,0.017,0.06,0.024,0,0.011,-0.31,0.869,0,0.007,-0.26,0.565,0,0.017,-0.21,0.054,0,0.073,0,0,0,0.014,-0.08,0.089,0,0.025,-0.09,0,0
23906,20110820,-96.82,28.3,0.016,0.03,0.036,0,0.01,-0.34,0.946,0,0.007,-0.28,0.655,0,0.017,-0.2,0.024,0,0.072,0,0,0,0.013,-0.11,0.19,0,0.024,-0.11,0,0
23906,20110821,-96.82,28.3,0.016,0,0.048,0,0.01,-0.37,0.994,0,0.007,-0.3,0.738,0,0.017,-0.2,0,0,0.071,0,0,0,0.013,-0.14,0.304,0,0.024,-0.13,0,0
23906,20110822,-96.82,28.3,0.016,-0.01,0.054,0.018,0.009,-0.4,1,0,0.007,-0.33,0.827,0,0.016,-0.21,0.012,0,0.07,0,0,0,0.012,-0.17,0.399,0,0.024,-0.15,0,0
23906,20110823,-96.82,28.3,0.015,-0.03,0.065,0.024,0.009,-0.42,1,0,0.007,-0.35,0.923,0,0.015,-0.22,0.012,0,0.069,0,0,0,0.012,-0.19,0.494,0,0.023,-0.16,0,0
23906,20110824,-96.82,28.3,0.015,-0.03,0.077,0.03,0.009,-0.44,1,0,0.006,-0.38,0.994,0,0.015,-0.22,0.018,0,0.069,0,0,0,0.012,-0.2,0.583,0,0.023,-0.18,0,0
23906,20110825,-96.82,28.3,0.016,-0.01,0.083,0.03,0.008,-0.45,1,0,0.006,-0.4,1,0,0.015,-0.23,0.065,0,0.068,0,0,0,0.012,-0.2,0.613,0,0.023,-0.2,0.025,0